User: anonymous   Login
Location: Unspecified
(0.0000°N, 0.0000°E)
Time: 23:55:43
(UTC+02:00)
Language:

CZ-4B DEB - Orbit

View from above orbital plane
View from above orbital plane
View from above satellite
View from above satellite

Ground track
Ground track

The orbit data is extracted from the following two-line orbital elements,

1 33411U 08053D   17291.23516514  .00201632  00000-0  79979-3 0  9993
2 33411  97.3858 347.1925 0004210 193.4818 166.6341 15.86190509495689
Epoch (UTC): 18 October 2017 05:38:38
Eccentricity: 0.0004210
inclination: 97.3858°
perigee height: 310 km
apogee height: 316 km
right ascension of ascending node: 347.1925°
argument of perigee: 193.4818°
revolutions per day: 15.86190509
mean anomaly at epoch: 166.6341°
orbit number at epoch: 49568

The dashed part of the orbit path shows where the satellite is in the earth's shadow,  

DLR